Meteo Giornale » Osservazioni meteo Paraguay » Aeropuerto Guarany
ore: 12:00 - Osservazioni Meteo Aeropuerto Guarany
Lat. 25° 27' S Lon. 54° 51' W Alt. 849 metri s.l.m.
22 °C
Molto Nuvoloso
Temp. 24 Ore
16 °C
24 °C
Nord
5.5 Km/h
Dew point 16 °C
Umidità 68 %
Visibilità 10 Km
Il sole sorge alle ore 06:51
Il sole tramonta alle ore 18:27
| Data e Ora | Cielo e Fenomeni | T °C | DP °C | Um. % | Pres. hPa | Vis. km | Vento km/h | |
|---|---|---|---|---|---|---|---|---|
| Oggi h: 12:00 | Molto Nuvoloso | 22 | 16 | 68 | 1016 | 10 | N 5.5 | |
| Oggi h: 11:00 | Coperto | 19 | 17 | 88 | 1016 | 9 | O 7.4 | |
| Oggi h: 10:30 | Coperto | 19 | 16 | 82 | 1016 | 8 | N 3.7 | |
| Oggi h: 10:00 | Molto Nuvoloso | 18 | 16 | 88 | 1016 | 10 | S 7.4 | |
| Oggi h: 09:30 | Molto Nuvoloso | 18 | 15 | 82 | 1016 | 10 | N 5.5 | |
| Oggi h: 09:00 | Molto Nuvoloso | 17 | 16 | 93 | 1015 | 10 | SO 9.3 | |
| Oggi h: 08:30 | Molto Nuvoloso | 17 | 16 | 93 | 1015 | 10 | N 5.5 | |
| Oggi h: 08:00 | Molto Nuvoloso | 17 | 15 | 88 | 1014 | 10 | S/SO 9.3 | |
| Oggi h: 07:00 | Sereno | 16 | 15 | 93 | 1012 | 6 | N 3.7 | |
| Oggi h: 06:00 | Molto Nuvoloso | 17 | 16 | 93 | 1012 | 10 | S 9.3 | |
| Oggi h: 05:00 | Coperto | 18 | 16 | 88 | 1012 | 10 | S 11.1 | |
| Oggi h: 04:00 | Coperto | 18 | 16 | 88 | 1011 | 10 | S 13 | |
| Oggi h: 03:00 | Coperto | 18 | 16 | 88 | 1012 | 10 | S 7.4 | |
| Oggi h: 02:00 | Coperto | 18 | 16 | 88 | 1012 | 10 | S 7.4 | |
| Oggi h: 01:00 | Molto Nuvoloso | 18 | 17 | 93 | 1011 | 10 | S 9.3 | |
| Oggi h: 00:00 | Molto Nuvoloso | 19 | 17 | 88 | 1012 | 10 | S/SE 9.3 | |
| Ieri h: 23:00 | Molto Nuvoloso | 19 | 17 | 88 | 1011 | 10 | S/SE 9.3 | |
| Ieri h: 22:00 | Molto Nuvoloso | 19 | 17 | 88 | 1010 | 10 | SE 9.3 | |
| Ieri h: 21:00 | Molto Nuvoloso | 19 | 17 | 88 | 1009 | 10 | S/SE 16.7 | |
| Ieri h: 20:00 | Coperto | 21 | 19 | 88 | 1009 | 10 | S/SO 9.3 | |
| Ieri h: 19:00 | Temporale | 21 | 20 | 94 | 1008 | 5 | E/SE 9.3 | |
| Ieri h: 18:30 | Temporale | 22 | 20 | 88 | 1009 | 5 | N 3.7 | |
| Ieri h: 18:00 | Coperto | 22 | 20 | 88 | 1007 | 10 | S 7.4 | |
| Ieri h: 17:00 | Temporale | 21 | 20 | 94 | 1005 | 5 | S 16.7 | |
| Ieri h: 16:40 | Temporale | 22 | 20 | 88 | 1007 | 1 | S 16.7 | |
| Ieri h: 16:00 | Coperto | 22 | 20 | 88 | 1005 | 10 | S/SE 16.7 | |
| Ieri h: 15:00 | Coperto | 24 | 21 | 83 | 1005 | 10 | SE 13 | |
| Ieri h: 14:00 | Coperto | 23 | 21 | 88 | 1007 | 10 | E/SE 7.4 | |
| Ieri h: 13:00 | Coperto | 23 | 21 | 88 | 1007 | 10 | NE 7.4 | |



